COSMOS 2499 DEB, 55723

Orbit data source: Space-Track

COSMOS 2499 DEB, 55723 is space debris in LEO originally from a launch on Fri, 23 May 2014 UTC launched from the Plesetsk Missile And Space Complex (PKMTR). Debris objects in space refer to the collection of defunct objects orbiting the Earth. Examples of debris include non-operational satellites, rocket bodies, and fragments generated from explosions, collisions, or faulty payload assembly.

Loading next visibility...
Identifier
55723, 2014-028AK
Orbit
LEO
Country
Flag of CISCIS
Related business
Manufacturer
TsNIIKhM
Mission
Spacecraft
Bus & Motor
Unknown
Mass
Unknown
Launch date (UTC)
2014-05-23 (12 years ago)
Launch vehicle
Unknown
Launch site
Plesetsk Missile And Space Complex (PKMTR)
Object type
Payload
Rocket body
Debris
Shape & HBR
Unknown shape, 0.1 m
Radar Cross Section
Small (<0.1 m²)

Expand to show TLE details & history
Last TLE update: 1 day ago

TLE from 1 day ago
0 COSMOS 2499 DEB
1 55723U 14028AK  25349.43665988  .00001612  00000-0  62954-2 0  9997
2 55723  82.5603  41.0467 0252936 119.5400 243.1174 12.78337421135387
Epoch: 2025-12-15T10:28Z
TLE epoch observation values (Epoch: 2025-12-15T10:28:47.413Z)
Latitude
-0.00009°
Longitude
159.51389°
Altitude
1,443.165 km
Speed
7.097 km/s
True Right ascension
02h 44m 11s
True Declination
0° 00' 00"
Sunlit
Object was in full shadow at epoch
Visualization orbit readout
Latitude
Unknown
Longitude
Unknown
Altitude
Unknown
Speed
Unknown
Apparent Right ascension
Unknown
Apparent Declination
Unknown
Sunlit
N/A
Visualization observer readout
Local Sidereal Time
12:46:37
Azimuth
Unknown
Elevation
Unknown
Doppler factor
Unknown
Orbital elements
Apogee altitude
1,540.816 km
Perigee altitude
1,150.1 km
Semi-major axis
7,723.595 km
Eccentricity
0.02529
Inclination
82.5603°
RAAN
41.0467°
Arg. of periapsis
119.54°
True anomaly
240.56948°
Mean anomaly
243.1174°
Eccentric anomaly
241.83973°
Mean motion
3.19752 °/min
Orbital period
112.59 mins
BSTAR
0.0062954
Loading maneuver chart data...
Computing Atmospheric mass density...
Loading historical data...
Loading historical data...
Loading historical data...
Loading historical data...
Loading historical data...
Loading historical data...
Loading historical data...

Documentation

Showing up to 5 results
|